Location: Billancourt
(48.8357°N, 2.2473°E)
Time: 01:42:52
(UTC+00:00)

Daily predictions for brighter satellites

Satellite Brightness Start Highest point End
(mag) Time Altitude Azimuth Time Altitude Azimuth Time Altitude Azimuth
CENTAUR R/B 4.0 02:45:10 43° NE 02:45:10 43° NE 02:52:11 10° ESE
USA 238 DEB 4.4 03:18:26 52° E 03:18:26 52° E 03:24:06 10° SE
USA 238 4.4 03:18:30 52° E 03:18:30 52° E 03:24:12 10° SE
Cosmos 2297 Rocket 4.3 03:32:24 18° NNE 03:32:24 18° NNE 03:33:45 10° NNE
ALOS 4.3 03:35:57 10° NE 03:39:50 25° E 03:40:31 24° ESE
Cosmos 2263 Rocket 3.8 03:46:18 17° SSE 03:49:41 31° ESE 03:54:37 10° NE
SJ 16-02 4.2 03:58:28 10° SE 04:01:14 16° E 04:04:00 10° ENE
ATLAS 3B R/B 3.8 03:59:42 32° N 04:01:45 38° NNE 04:08:18 10° E
Cosmos 1603 3.9 04:08:24 66° ENE 04:08:24 66° ENE 04:13:58 10° SE
FENGYUN 3A 4.3 04:06:46 10° NNE 04:12:06 53° E 04:17:21 10° S
COSMO-SKYMED 1 4.2 04:08:31 10° SE 04:12:21 32° ENE 04:13:49 25° NNE
Cosmos 1386 Rocket 4.5 04:11:00 10° S 04:17:24 84° E 04:23:47 10° N
Cosmos 1943 3.4 04:17:13 61° NNE 04:17:59 70° ENE 04:23:40 10° SE
ADEOS 4.2 04:14:43 10° NNE 04:19:51 53° E 04:24:57 10° S
NOSS 3-2 (C) 3.9 04:20:32 56° NW 04:22:28 81° SW 04:30:58 10° SSE
ATLAS CENTAUR R/B 3.5 04:23:42 17° NE 04:23:42 17° NE 04:26:09 10° ENE
Cosmos 1777 Rocket 4.1 04:23:32 62° SSE 04:24:14 71° ESE 04:29:26 10° NNE
Nadezhda 1 Rocket 3.9 04:28:56 66° WSW 04:28:56 66° WSW 04:34:50 10° S
Meteor 1-4 Rocket 4.2 04:31:52 31° ENE 04:31:52 31° ENE 04:34:52 10° SE
Cosmos 2084 4.3 04:33:10 43° SSE 04:33:10 43° SSE 04:36:18 10° SSE
SL-4 R/B 2.9 04:33:39 44° E 04:33:39 44° E 04:36:20 10° ENE
Meteor 1-31 Rocket 3.6 04:30:56 10° NNE 04:34:43 50° E 04:35:13 46° SE
CENTAUR R/B 3.1 04:32:23 45° NW 04:35:18 73° SW 04:44:06 10° SSE
Cosmos 1538 Rocket 3.9 04:35:15 81° W 04:35:20 81° WSW 04:40:37 10° SSE
Cosmos 2227 Rocket 3.7 04:40:17 22° NNW 04:40:17 22° NNW 04:43:00 10° NNE
Cosmos 2227 4.3 04:36:02 21° SSW 04:39:51 73° ESE 04:45:28 10° NNE
ARGOS Delta rocket 3.8 04:36:43 10° N 04:42:00 84° WNW 04:46:57 10° SSW
ATLAS 2AS CENTAUR R/B 3.8 04:37:10 10° SSW 04:44:45 52° ESE 04:52:18 10° NE
deb Chang Zheng 4 3.9 04:41:25 10° NNE 04:45:44 63° ESE 04:50:02 10° S
Cosmos 489 Rocket 4.4 04:45:08 48° NW 04:46:44 64° WSW 04:52:57 10° S
NOSS 3-2 (A) 4.4 04:50:27 40° W 04:51:42 43° WSW 04:59:31 10° S
Cosmos 1633 2.7 04:53:09 10° S 04:56:38 68° E 05:00:11 10° NNE
FALCON 9 DEB 4.1 04:57:31 41° NNE 04:57:31 41° NNE 05:00:07 10° ENE
Gbstr 26 Del rocket 2.6 04:56:52 73° NE 04:56:52 73° NE 05:00:38 10° ESE
USA 307 3.3 04:57:31 47° N 04:57:31 47° N 05:01:39 10° ENE
Lacrosse 4 Rocket 1.4 04:58:45 60° NNW 04:59:31 88° ENE 05:03:55 10° SSE
SKYMED 2 3.5 04:55:57 10° SSE 05:00:17 90° E 05:02:27 30° NNW
METEOR-M 4.0 04:57:51 10° NNE 05:03:13 77° WNW 05:08:33 10° SSW
Cosmos 1184 Rocket 3.2 05:00:27 10° S 05:03:41 63° E 05:06:57 10° NNE
USA 308 3.3 05:03:29 45° NNW 05:03:42 46° N 05:07:52 10° ENE
SAR-Lupe-4 3.6 05:00:51 10° S 05:03:59 65° SSW 05:03:59 65° SSW
USA 238 DEB 4.4 05:05:56 34° W 05:07:20 37° WSW 05:14:04 10° S
USA 238 4.4 05:06:00 34° W 05:07:27 37° WSW 05:14:11 10° S
Cosmos 1461 3.4 05:09:38 46° WSW 05:09:56 47° WSW 05:14:18 10° SSE
Cosmos 1745 Rocket 4.3 05:07:56 22° SW 05:11:35 41° WNW 05:17:34 10° N
CZ-4B R/B 3.3 05:08:14 10° NNE 05:12:46 75° ESE 05:17:13 10° S
Meteor 1-26 Rocket 4.2 05:07:23 10° NNW 05:13:16 80° W 05:18:55 10° S
Cosmos 2297 Rocket 3.9 05:14:14 16° NNW 05:14:14 16° NNW 05:16:55 10° N
Cosmos 1151 Rocket 2.8 05:12:35 31° NNW 05:14:30 67° W 05:18:44 10° S
Cosmos 1689 Rocket 2.8 05:14:24 10° S 05:16:25 41° S 05:16:25 41° S
ALOS 2.5 05:12:59 10° N 05:17:25 43° WNW 05:19:00 32° WSW
H-2A R/B 3.8 05:16:25 10° NNE 05:20:15 49° E 05:24:02 10° S
BREEZE-M DEB (TANK) 3.8 05:16:30 28° WNW 05:20:41 63° SSW 05:24:01 10° SE
SAR-Lupe-1 4.2 05:18:03 10° S 05:21:31 50° W 05:21:35 50° W
CZ-4C R/B 3.2 05:19:13 10° S 05:23:53 44° ESE 05:29:26 10° NE
Cosmos 1328 Rocket 3.5 05:22:02 18° NNW 05:25:10 60° W 05:29:30 10° S
ERBS 2.5 05:25:08 48° NNW 05:25:10 48° NNW 05:28:24 10° NE
CRYOSAT 2 4.3 05:20:42 10° S 05:25:30 62° W 05:30:21 10° N
ERS-2 4.4 05:22:51 10° SSW 05:23:14 12° SSW 05:23:14 12° SSW
Cosmos 2181 Rocket 3.9 05:19:45 10° NNW 05:25:56 64° W 05:31:59 10° S
BREEZE-M DEB (TANK) 3.6 05:25:50 24° SW 05:27:07 39° SSE 05:30:55 10° E
Lacrosse 5 2.5 05:24:22 10° SSW 05:29:18 56° SE 05:34:16 10° ENE
Cosmos 2263 Rocket 2.4 05:28:09 11° SW 05:33:23 50° NW 05:38:57 10° NNE
USA 305 3.6 05:32:40 30° NW 05:34:13 41° N 05:38:19 10° ENE
Meteor PRIRODA 3.5 05:31:09 10° N 05:34:53 70° WNW 05:38:35 10° SSW
PSLV R/B 4.1 05:31:26 10° S 05:35:30 51° W 05:38:31 17° NNW
Cosmos 1709 Rocket 4.3 05:31:06 10° SW 05:37:10 45° WNW 05:43:17 10° N
Meteor 2-3 Rocket 3.8 05:33:24 10° SSW 05:39:02 60° WNW 05:44:47 10° N
SJ 16-02 1.3 05:34:57 10° SSW 05:39:19 61° WNW 05:43:44 10° NNE
BREEZE-M DEB 4.2 05:31:43 21° WNW 05:39:41 67° SSW 05:43:24 10° SE
Okean 3 Rocket 4.0 05:36:45 10° SW 05:40:51 38° WNW 05:45:00 10° N
Cosmos 923 Rocket 4.2 05:37:01 17° NW 05:40:56 51° WSW 05:46:03 10° S
ASTRO F (AKARI) 4.1 05:38:27 10° NNE 05:41:32 85° E 05:44:40 10° SSW
USA 306 3.6 05:40:35 26° NW 05:42:30 41° N 05:46:36 10° ENE
Cosmos 1766 Rocket 4.0 05:38:19 10° SW 05:42:33 40° WNW 05:46:48 10° N
Cosmos 1862 4.2 05:39:12 10° S 05:43:09 54° E 05:47:08 10° NNE
Cosmos 2082 Rocket 4.4 05:42:24 10° N 05:46:12 18° NE 05:50:00 10° ENE
SJ-12 4.3 05:42:42 10° N 05:46:31 39° WNW 05:50:17 10° SW
Cosmos 1743 Rocket 3.8 05:42:31 10° S 05:46:56 73° E 05:51:25 10° NNE
COSMO-SKYMED 1 3.3 05:44:39 10° SSW 05:48:30 31° W 05:51:01 18° NW
Cosmos 1408 Rocket 3.6 05:47:00 10° SSW 05:51:23 56° WNW 05:55:48 10° N
CZ-2C R/B 3.5 05:46:32 10° SE 05:51:52 53° ENE 05:57:06 10° N
FENGYUN 3A 4.5 05:47:36 10° N 05:52:08 28° WNW 05:56:38 10° WSW
ATLAS 3B R/B 2.8 05:46:59 14° NW 05:53:01 75° SW 06:00:11 10° SSE
Cosmos 990 Rocket 4.0 05:48:55 10° SSW 05:54:10 87° WNW 05:59:28 10° NNE
PSLV R/B 3.7 05:54:16 10° NNE 05:58:12 81° WNW 06:02:01 10° SSW
ADEOS 4.5 05:54:47 10° N 05:59:04 26° WNW 06:03:21 10° WSW
EO 1 Delta rocket 4.0 05:55:04 10° S 06:00:11 56° W 06:04:46 10° NNW
Cosmos 1943 4.4 05:59:05 17° WNW 06:01:28 22° W 06:05:42 10° SSW
ATLAS CENTAUR R/B 1.1 05:59:53 15° NW 06:02:55 88° SW 06:06:49 10° SE
ATLAS 5 CENTAUR R/B 3.2 06:01:57 17° WNW 06:03:35 20° NW 06:05:45 10° NNE
Cosmos 1833 Rocket 4.2 05:58:43 10° NNW 06:03:41 31° NE 06:08:38 10° ESE
Cosmos 2074 Rocket 4.0 05:59:21 10° SSW 06:05:31 66° WNW 06:11:44 10° N
MOS 1 Rocket 3.5 06:01:39 10° S 06:06:16 53° W 06:11:14 10° NNW
Meteor 1-4 Rocket 3.9 06:06:07 17° W 06:06:33 18° W 06:08:57 10° SW
Cosmos 1805 Rocket 4.3 06:02:24 10° S 06:06:45 59° E 06:11:09 10° NNE
Meteor 1-31 Rocket 4.2 06:06:14 10° NNW 06:08:46 17° WNW 06:10:32 13° W
NOAA 6 4.0 06:04:37 10° NNE 06:09:47 89° W 06:14:54 10° SSW
Cosmos 1680 Rocket 4.1 06:05:01 10° NW 06:09:57 39° WSW 06:14:50 10° S
FALCON 9 DEB 4.0 06:07:30 10° SW 06:10:35 47° SSE 06:13:43 10° ENE
Cosmos 1782 3.8 06:07:27 10° NNW 06:10:49 26° W 06:14:11 10° SW
SMAP 3.6 06:07:05 10° NNE 06:11:44 65° ESE 06:16:22 10° S
SL-4 R/B 2.0 06:09:15 15° W 06:12:16 55° N 06:15:52 10° ENE
FALCON 9 DEB 3.8 06:10:03 10° SW 06:13:10 52° SSE 06:16:20 10° ENE
H-2A R/B 2.2 06:09:44 10° NNE 06:13:38 80° WNW 06:17:27 10° SSW
RESURS DK-1 2.3 06:10:57 10° SSW 06:15:07 83° WNW 06:19:18 10° NNE
NOSS 3-4 (A) 3.6 06:10:02 10° WSW 06:15:51 51° NW 06:22:10 10° NE
NOSS 3-4 (C) 3.6 06:10:09 10° WSW 06:15:58 51° NW 06:22:18 10° NE
Cosmos 2184 Rocket 4.1 06:13:28 10° SSW 06:19:39 55° WNW 06:25:55 10° N
Cosmos 2228 Rocket 3.2 06:15:44 10° NNW 06:20:06 56° W 06:24:24 10° S
Genesis I 3.4 06:16:29 10° SSW 06:20:17 76° SE 06:24:09 10° NE
Cosmos 405 Rocket 2.6 06:19:07 10° SSW 06:22:46 65° WNW 06:26:30 10° N
USA 234 3.4 06:17:11 10° ENE 06:23:46 82° SE 06:30:19 10° SW
Cosmos 1295 Rocket 4.5 06:17:54 10° S 06:24:00 87° W 06:30:09 10° N
CENTAUR R/B 4.4 06:19:36 11° WNW 06:25:08 21° WSW 06:31:09 10° SSW
Cosmos 1812 3.2 06:25:05 10° NNW 06:28:43 40° W 06:32:18 10° SSW
EXPRESS MD2 4.2 06:27:11 10° WNW 06:31:10 85° S 06:39:29 10° ESE
FALCON 9 DEB 3.3 06:29:32 10° SW 06:32:44 69° SSE 06:35:57 10° ENE
FALCON 9 DEB 3.8 06:30:45 10° WNW 06:34:05 41° N 06:37:25 10° ENE
Geosat 4.0 06:30:05 10° SSE 06:35:05 72° WSW 06:40:08 10° NNW
ATLAS 2AS CENTAUR R/B 3.2 06:28:03 10° WSW 06:35:52 55° NW 06:43:30 10° NE
Lacrosse 4 Rocket 3.5 06:35:46 10° W 06:37:34 12° WSW 06:39:22 10° SW
USA 307 3.6 06:33:55 10° WNW 06:38:04 44° N 06:42:13 10° E
EP 3 3.6 06:36:39 10° SW 06:38:40 74° SE 06:40:34 10° NE
USA-17 4.2 06:35:57 10° SW 06:39:33 79° NW 06:42:39 10° NE
YAOGAN 6 3.3 06:38:11 10° N 06:41:20 31° WNW 06:44:27 10° SW
Cosmos 372 Rocket 4.1 06:36:34 10° SSW 06:41:39 81° ESE 06:46:46 10° NNE
Cosmos 1633 Rocket 3.9 06:38:15 10° S 06:42:35 56° E 06:46:55 10° NNE
Gbstr 26 Del rocket 3.9 06:39:57 10° W 06:43:20 32° SW 06:47:00 10° SSE
Cosmos 1898 Rocket 3.9 06:38:45 10° SW 06:43:47 42° WNW 06:48:53 10° NNE
USA 308 3.5 06:40:09 10° WNW 06:44:19 45° N 06:48:28 10° E
Cosmos 1437 Rocket 3.0 06:41:09 10° NNW 06:44:48 44° W 06:48:24 10° SSW
